Retour au catalogue

STARLINK-5269

ActifCommunicationsVLEO
NORAD 54161·PAYLOAD·🇺🇸 United States

Lancé Oct 28, 2022 depuis Vandenberg Space Force Base

Loading…

Prochains Passages (prochaines 24 heures)

TLE

FraisSource: CelesTrak SupGP

Époque: Sep 14, 2026, 22:21 UTC

1 54161C 22141E   26257.93173611  .00026543  00000+0  85345-3 0  2574
2 54161  53.1585 233.6980 0001159  93.6835 232.9283 15.31693227    16

Suivez STARLINK-5269 en temps réel avec AllMySat

Download on the App Store